Location: Newark
(58.8333°N, 23.5833°E)
Time: 12:48:34
(UTC+00:00)

METEOR M2 - Pass Details

Date: 10 December 2019
Orbit: 819 x 827 km, 98.5° (Epoch: 19 January)

Event Time Altitude Azimuth Distance (km) Brightness Sun altitude
Exits shadow 19:41:19 13° 311° (NW) 2,194 ? -44.6°
Drops below altitude 10° 19:42:18 10° 320° (NW) 2,431 ? -44.7°
Sets 19:45:22 0° 338° (NNW) 3,368 ? -45.0°
